Overview Statistics Trail Chart Weather Telemetry Raw packets
 

This is the latest recevied weather packets stored in our database for station/object N1YZ. If no packets are shown the sender has not sent any weather packets the latest 10 day(s).

<< 104 105 106 107 108 109 110 >>
Time Temp. Humidity Pressure Rain* Wind** Luminosity Snow
1787866310 27.78° C 81% 1033.3 hPa 0 mm - 55 W/m² -
1787866006 28.33° C 80% 1033.2 hPa 0 mm - 59 W/m² -
1787865705 27.78° C 80% 1033.4 hPa 0 mm - 61 W/m² -
1787865400 27.78° C 80% 1033.3 hPa 0 mm - 68 W/m² -
1787865096 28.33° C 81% 1033.5 hPa 0 mm - 69 W/m² -
1787864791 28.33° C 80% 1033.5 hPa 0 mm - 78 W/m² -
1787864486 28.33° C 80% 1033.3 hPa 0 mm - 86 W/m² -
1787864186 28.89° C 80% 1033.4 hPa 0 mm - 98 W/m² -
1787863880 28.33° C 80% 1033.5 hPa 0 mm - 120 W/m² -
1787863578 28.89° C 78% 1033.5 hPa 0 mm - 135 W/m² -
1787863274 28.89° C 77% 1033.5 hPa 0 mm - 134 W/m² -
1787862970 29.44° C 77% 1033.6 hPa 0 mm - 136 W/m² -
1787862664 29.44° C 77% 1033.4 hPa 0 mm - 135 W/m² -
1787862359 28.89° C 78% 1033.7 hPa 0 mm - 207 W/m² -
1787862055 28.89° C 81% 1033.8 hPa 0 mm - 174 W/m² -
1787861754 28.89° C 82% 1034 hPa 0 mm - 171 W/m² -
1787861453 28.89° C 80% 1033.9 hPa 0 mm - 161 W/m² -
1787861148 28.89° C 81% 1034 hPa 0 mm - 168 W/m² -
1787860847 28.89° C 80% 1034.1 hPa 0 mm - 175 W/m² -
1787860541 28.33° C 79% 1034.3 hPa 0 mm - 154 W/m² -
1787860237 28.33° C 79% 1034.1 hPa 0 mm - 136 W/m² -
1787859932 28.33° C 80% 1034.2 hPa 0 mm - 135 W/m² -
1787859627 28.33° C 79% 1034.2 hPa 0 mm - 124 W/m² -
1787859327 28.33° C 78% 1034.3 hPa 0 mm - 142 W/m² -
1787859023 28.33° C 80% 1034.3 hPa 0 mm - 154 W/m² -

* Rain latest hour (hover to see other rain measurements)
** Current wind speed in m/s (hover to see current wind gust speed)